| time (UTC) | temp F | wind direction | speed knots | gust knots | rain 1hr in | rain 24hr in | rain mn in | humidity % | barometer mb |
| 20260505100055 | 50 | 70 | 3.5 | 12.2 | 0.00 | 0.00 | 0.00 | 55 | 1008.3 |
| 20260505094556 | 50 | 62 | 4.3 | 12.2 | 0.00 | 0.00 | 0.00 | 54 | 1008.7 |
| 20260505093058 | 50 | 66 | 4.3 | 12.2 | 0.00 | 0.00 | 0.00 | 54 | 1008.7 |
| 20260505091601 | 51 | 55 | 4.3 | 9.6 | 0.00 | 0.00 | 0.00 | 54 | 1008.6 |
| 20260505090057 | 51 | 34 | 2.6 | 13.9 | 0.00 | 0.00 | 0.00 | 54 | 1008.7 |
| 20260505084554 | 51 | 67 | 2.6 | 9.6 | 0.00 | 0.00 | 0.00 | 54 | 1008.5 |
| 20260505083058 | 51 | 85 | 2.6 | 11.3 | 0.00 | 0.00 | 0.00 | 53 | 1008.2 |
| 20260505081606 | 51 | 37 | 2.6 | 9.6 | 0.00 | 0.00 | 0.00 | 52 | 1007.9 |
| 20260505080058 | 51 | 23 | 2.6 | 10.4 | 0.00 | 0.00 | 0.00 | 50 | 1007.3 |
| 20260505074602 | 52 | 32 | 4.3 | 12.2 | 0.00 | 0.00 | 0.00 | 48 | 1006.8 |
| 20260505073110 | 53 | 38 | 5.2 | 14.8 | 0.00 | 0.00 | 0.00 | 47 | 1006.3 |
| 20260505071600 | 53 | 54 | 6.1 | 13.0 | 0.00 | 0.00 | 0.00 | 46 | 1005.9 |
| 20260505070055 | 54 | 6 | 7.0 | 20.0 | 0.00 | 0.00 | 0.00 | 44 | 1005.9 |
| 20260505064556 | 55 | 45 | 6.1 | 19.1 | 0.00 | 0.00 | 0.00 | 44 | 1005.8 |
| 20260505063054 | 56 | 43 | 5.2 | 18.2 | 0.00 | 0.00 | 0.00 | 50 | 1005.5 |
| 20260505061559 | 57 | 36 | 5.2 | 13.9 | 0.00 | 0.00 | 0.00 | 47 | 1005.5 |
| 20260505054622 | 58 | 41 | 6.1 | 12.2 | 0.00 | 0.00 | 0.00 | 47 | 1005.3 |
| 20260505053115 | 59 | 41 | 5.2 | 20.0 | 0.00 | 0.00 | 0.00 | 47 | 1005.2 |
| 20260505051601 | 59 | 57 | 6.1 | 13.0 | 0.00 | 0.00 | 0.00 | 49 | 1005.3 |
| 20260505050113 | 60 | 39 | 5.2 | 13.0 | 0.00 | 0.00 | 0.00 | 53 | 1005.2 |
| 20260505041601 | 63 | 6 | 4.3 | 10.4 | 0.00 | 0.00 | 0.00 | 50 | 1004.1 |
| 20260505040057 | 65 | 42 | 4.3 | 15.6 | 0.00 | 0.00 | 0.00 | 44 | 1003.8 |
| 20260505034557 | 67 | 352 | 2.6 | 5.2 | 0.00 | 0.00 | 0.00 | 36 | 1003.8 |
| 20260505033100 | 68 | 70 | 1.7 | 8.7 | 0.00 | 0.00 | 0.00 | 32 | 1003.6 |
| 20260505031610 | 69 | 60 | 4.3 | 9.6 | 0.00 | 0.00 | 0.00 | 32 | 1002.7 |
| 20260505024559 | 71 | 74 | 2.6 | 7.8 | 0.00 | 0.00 | 0.00 | 27 | 1001.9 |
| 20260505023119 | 72 | 74 | 3.5 | 7.8 | 0.00 | 0.00 | 0.00 | 27 | 1001.6 |
| 20260505021558 | 72 | 70 | 4.3 | 9.6 | 0.00 | 0.00 | 0.00 | 25 | 1001.4 |
| 20260505020058 | 74 | 104 | 3.5 | 9.6 | 0.00 | 0.00 | 0.00 | 24 | 1001.3 |
| 20260505014604 | 75 | 68 | 3.5 | 11.3 | 0.00 | 0.00 | 0.00 | 23 | 1001.2 |
| 20260505013109 | 76 | 57 | 3.5 | 9.6 | 0.00 | 0.00 | 0.00 | 22 | 1001.1 |
| 20260505011557 | 77 | 75 | 3.5 | 7.8 | 0.00 | 0.00 | 0.00 | 21 | 1001.0 |
| 20260505004559 | 79 | 70 | 1.7 | 3.5 | 0.00 | 0.00 | 0.00 | 20 | 1000.9 |
| 20260505003057 | 79 | 60 | 0.9 | 3.5 | 0.00 | 0.00 | 0.00 | 20 | 1001.0 |
| 20260505001600 | 80 | 0 | 0.9 | 6.1 | 0.00 | 0.00 | 0.00 | 19 | 1001.1 |
| 20260505000115 | 80 | 0 | 0.9 | 3.5 | 0.00 | 0.00 | 0.00 | 19 | 1001.3 |
| 20260504234558 | 81 | 35 | 0.9 | 4.3 | 0.00 | 0.00 | 0.00 | 19 | 1001.2 |
| 20260504233100 | 81 | 72 | 2.6 | 7.0 | 0.00 | 0.00 | 0.00 | 18 | 1001.3 |
| 20260504231557 | 81 | 55 | 3.5 | 7.8 | 0.00 | 0.00 | 0.00 | 19 | 1001.4 |
| 20260504230106 | 81 | 92 | 3.5 | 8.7 | 0.00 | 0.00 | 0.00 | 19 | 1001.6 |
| 20260504224556 | 81 | 79 | 2.6 | 7.0 | 0.00 | 0.00 | 0.00 | 18 | 1001.9 |
| 20260504223104 | 81 | 50 | 2.6 | 7.8 | 0.00 | 0.00 | 0.00 | 18 | 1001.7 |
| 20260504221603 | 81 | 68 | 2.6 | 7.8 | 0.00 | 0.00 | 0.00 | 17 | 1001.9 |
| 20260504220059 | 81 | 54 | 1.7 | 7.0 | 0.00 | 0.00 | 0.00 | 19 | 1002.0 |
| 20260504214558 | 81 | 73 | 0.9 | 11.3 | 0.00 | 0.00 | 0.00 | 18 | 1002.1 |
| 20260504213105 | 82 | 54 | 1.7 | 7.0 | 0.00 | 0.00 | 0.00 | 17 | 1002.0 |
| 20260504211605 | 81 | 62 | 2.6 | 10.4 | 0.00 | 0.00 | 0.00 | 17 | 1002.2 |
| 20260504210058 | 81 | 40 | 2.6 | 7.8 | 0.00 | 0.00 | 0.00 | 20 | 1002.3 |
| 20260504204601 | 82 | 72 | 5.2 | 10.4 | 0.00 | 0.00 | 0.00 | 20 | 1002.5 |
| 20260504203106 | 84 | 33 | 3.5 | 10.4 | 0.00 | 0.00 | 0.00 | 19 | 1002.2 |
| 20260504201554 | 87 | 337 | 0.9 | 4.3 | 0.00 | 0.00 | 0.00 | 12 | 1002.6 |
| 20260504200059 | 88 | 199 | 1.7 | 5.2 | 0.00 | 0.00 | 0.00 | 12 | 1002.8 |
| 20260504194559 | 89 | 117 | 0.9 | 4.3 | 0.00 | 0.00 | 0.00 | 12 | 1002.9 |
| 20260504193056 | 89 | 222 | 4.3 | 9.6 | 0.00 | 0.00 | 0.00 | 12 | 1003.1 |
| 20260504191607 | 90 | 184 | 1.7 | 5.2 | 0.00 | 0.00 | 0.00 | 12 | 1003.3 |
| 20260504190117 | 89 | 203 | 3.5 | 7.8 | 0.00 | 0.00 | 0.00 | 12 | 1003.6 |
| 20260504184555 | 89 | 168 | 2.6 | 5.2 | 0.00 | 0.00 | 0.00 | 12 | 1003.8 |
| 20260504183059 | 89 | 208 | 0.0 | 7.8 | 0.00 | 0.00 | 0.00 | 13 | 1003.8 |
| 20260504181558 | 88 | 335 | 0.9 | 3.5 | 0.00 | 0.00 | 0.00 | 14 | 1004.1 |
| 20260504174556 | 85 | 255 | 2.6 | 8.7 | 0.00 | 0.00 | 0.00 | 16 | 1004.7 |
| 20260504173057 | 84 | 212 | 3.5 | 5.2 | 0.00 | 0.00 | 0.00 | 17 | 1004.9 |
| 20260504171555 | 83 | 239 | 1.7 | 6.1 | 0.00 | 0.00 | 0.00 | 17 | 1005.1 |
| 20260504140108 | 56 | 240 | 1.7 | 4.3 | 0.00 | 0.00 | 0.00 | 53 | 1005.8 |
| 20260504130109 | 46 | 267 | 0.0 | 2.6 | 0.00 | 0.00 | 0.00 | 68 | 1005.4 |